Greenwich, CT

11:25 AM EST on December 08, 2016 (GMT -0500)
Westchester County

Weather History for KHPN - March, 2013

Change the Weather History Date:

Wednesday, March 13, 2013

  Actual Average Record
Temperature  
Mean Temperature 40 °F -  
Max Temperature 48 °F 42 °F 82 °F (1990)
Min Temperature 33 °F 27 °F 15 °F (2014)
Degree Days  
Heating Degree Days 26    
Moisture  
Dew Point 28 °F    
Average Humidity 66    
Maximum Humidity 92    
Minimum Humidity 33    
Precipitation  
Precipitation 0.00 in - - ()
Sea Level Pressure  
Sea Level Pressure 29.84 in    
Wind  
Wind Speed 6 mph (WNW)    
Max Wind Speed 15 mph    
Max Gust Speed 22 mph    
Visibility 10 miles    
Events      
Averages and records for this station are not official NWS values.
T = Trace of Precipitation, MM = Missing Value Source: NWS Daily Summary

Daily Weather History Graph

Daily Weather History Graph

Search for Another Location

Airport or City:

Trip Planner

Search our weather history database for the weather conditions in past years. The results will help you decide how hot, cold, wet, or windy it might be!

Date:

Astronomy

Mar. 13, 2013 Rise Set
Actual Time 7:09 AM EDT 6:59 PM EDT
Civil Twilight 6:42 AM EDT 7:27 PM EDT
Nautical Twilight 6:10 AM EDT 7:58 PM EDT
Astronomical Twilight 5:37 AM EDT 8:31 PM EDT
Moon 7:46 AM EDT (3/13) 9:15 PM EDT (3/13)
Length of Visible Light 12h 44m
Length of Day
11h 50m
Waxing Crescent, 4% of the Moon is Illuminated
Mar 13
Waxing Crescent
Mar 19
First Quarter
Mar 27
Full
Apr 3
Last Quarter
Apr 10
New

Hourly Weather History & Observations

Time (EDT) Temp. Windchill Dew Point Humidity Pressure Visibility Wind Dir Wind Speed Gust Speed Precip Events Conditions
12:56 AM 41.0 °F 35.8 °F 36.0 °F 82% 29.82 in 10.0 mi NNW 8.1 mph - N/A   Mostly Cloudy
1:56 AM 39.0 °F 32.8 °F 34.0 °F 82% 29.83 in 10.0 mi NW 9.2 mph - N/A   Partly Cloudy
2:56 AM 37.9 °F 35.5 °F 33.1 °F 83% 29.84 in 10.0 mi NW 3.5 mph - N/A   Partly Cloudy
3:56 AM 36.0 °F - 33.1 °F 89% 29.84 in 10.0 mi Calm Calm - N/A   Clear
4:56 AM 34.0 °F - 32.0 °F 92% 29.85 in 8.0 mi Calm Calm - N/A   Clear
5:56 AM 33.1 °F - 30.9 °F 92% 29.86 in 7.0 mi Calm Calm - N/A   Mostly Cloudy
6:56 AM 33.1 °F - 30.0 °F 89% 29.87 in 10.0 mi Calm Calm - N/A   Clear
7:56 AM 34.0 °F - 32.0 °F 92% 29.88 in 8.0 mi Calm Calm - N/A   Clear
8:56 AM 39.0 °F 33.4 °F 30.9 °F 73% 29.88 in 10.0 mi WNW 8.1 mph - N/A   Clear
9:56 AM 39.9 °F 35.1 °F 30.0 °F 68% 29.87 in 10.0 mi NW 6.9 mph - N/A   Clear
10:56 AM 43.0 °F 37.2 °F 28.9 °F 58% 29.86 in 10.0 mi NW 10.4 mph - N/A   Scattered Clouds
11:56 AM 45.0 °F 41.2 °F 27.0 °F 49% 29.85 in 10.0 mi WNW 6.9 mph - N/A   Scattered Clouds
12:56 PM 46.0 °F 41.4 °F 28.0 °F 50% 29.83 in 10.0 mi NW 9.2 mph - N/A   Mostly Cloudy
1:56 PM 46.0 °F 41.9 °F 25.0 °F 44% 29.81 in 10.0 mi WNW 8.1 mph - N/A   Mostly Cloudy
2:56 PM 46.9 °F - 24.1 °F 41% 29.78 in 10.0 mi NW 12.7 mph 21.9 mph N/A   Mostly Cloudy
4:56 PM 46.9 °F - 19.0 °F 33% 29.78 in 10.0 mi West 11.5 mph - N/A   Mostly Cloudy
5:56 PM 46.0 °F 40.6 °F 19.9 °F 35% 29.79 in 10.0 mi West 11.5 mph 18.4 mph N/A   Mostly Cloudy
6:56 PM 45.0 °F 38.2 °F 21.0 °F 39% 29.81 in 10.0 mi WSW 15.0 mph 19.6 mph 0.00 in   Scattered Clouds
7:56 PM 39.0 °F 32.3 °F 28.0 °F 65% 29.84 in 10.0 mi NW 10.4 mph - N/A   Partly Cloudy
8:56 PM 37.9 °F 32.1 °F 28.9 °F 70% 29.85 in 10.0 mi WNW 8.1 mph - N/A   Mostly Cloudy
9:56 PM 37.0 °F 31.6 °F 28.0 °F 70% 29.86 in 10.0 mi WNW 6.9 mph - N/A   Scattered Clouds
10:56 PM 37.9 °F 33.5 °F 27.0 °F 65% 29.86 in 10.0 mi West 5.8 mph - N/A   Partly Cloudy
11:56 PM 37.0 °F 30.4 °F 25.0 °F 62% 29.86 in 10.0 mi West 9.2 mph - N/A   Partly Cloudy